Time,TemperatureF,DewpointF,PressureIn,WindDirection,WindDirectionDegrees,WindSpeedMPH,WindSpeedGustMPH,Humidity,HourlyPrecipIn,Conditions,Clouds,dailyrainin,SoftwareType,DateUTC
2013-11-28 00:04:00,34.3,31.4,30.05,NW,315,0.0,0.0,89,0.00,,CLR,0.00,VWS V14.01,2013-11-28 08:04:00,
2013-11-28 00:09:00,34.3,31.4,30.05,NW,315,0.0,0.0,89,0.00,,CLR,0.00,VWS V14.01,2013-11-28 08:09:00,
2013-11-28 00:14:00,34.3,31.4,30.05,NW,315,0.0,0.0,89,0.00,,CLR,0.00,VWS V14.01,2013-11-28 08:14:00,
2013-11-28 00:19:00,34.3,31.4,30.05,NW,315,0.0,0.0,89,0.00,,CLR,0.00,VWS V14.01,2013-11-28 08:19:00,
2013-11-28 00:24:00,34.3,31.4,30.05,NW,315,0.0,0.0,89,0.00,,CLR,0.00,VWS V14.01,2013-11-28 08:24:00,
2013-11-28 00:29:00,34.3,31.4,30.05,NW,315,0.0,0.0,89,0.00,,CLR,0.00,VWS V14.01,2013-11-28 08:29:00,
2013-11-28 00:34:00,34.3,31.4,30.05,NW,315,0.0,0.0,89,0.00,,CLR,0.00,VWS V14.01,2013-11-28 08:34:00,
2013-11-28 00:39:00,33.8,30.9,30.06,NW,315,0.0,0.0,89,0.00,,CLR,0.00,VWS V14.01,2013-11-28 08:39:00,
2013-11-28 00:44:00,33.8,30.9,30.06,NW,315,0.0,0.0,89,0.00,,CLR,0.00,VWS V14.01,2013-11-28 08:44:00,
2013-11-28 00:49:00,33.8,30.9,30.06,NW,315,0.0,0.0,89,0.00,,CLR,0.00,VWS V14.01,2013-11-28 08:49:00,
2013-11-28 00:54:00,33.6,30.7,30.05,NW,315,0.0,0.0,89,0.00,,CLR,0.00,VWS V14.01,2013-11-28 08:54:00,
2013-11-28 00:59:00,33.6,30.7,30.05,NW,315,0.0,0.0,89,0.00,,CLR,0.00,VWS V14.01,2013-11-28 08:59:00,
2013-11-28 01:04:00,33.6,30.7,30.06,NW,315,0.0,0.0,89,0.00,,CLR,0.00,VWS V14.01,2013-11-28 09:04:00,
2013-11-28 01:09:00,33.4,30.5,30.05,NW,315,0.0,0.0,89,0.00,,CLR,0.00,VWS V14.01,2013-11-28 09:09:00,
2013-11-28 01:14:00,33.4,30.5,30.06,NW,315,0.0,0.0,89,0.00,,CLR,0.00,VWS V14.01,2013-11-28 09:14:00,
2013-11-28 01:19:00,33.4,30.5,30.06,NW,315,0.0,0.0,89,0.00,,CLR,0.00,VWS V14.01,2013-11-28 09:19:00,
2013-11-28 01:24:00,33.2,30.3,30.06,NW,315,0.0,0.0,89,0.00,,CLR,0.00,VWS V14.01,2013-11-28 09:24:00,
2013-11-28 01:29:00,33.2,30.3,30.06,NW,315,0.0,0.0,89,0.00,,CLR,0.00,VWS V14.01,2013-11-28 09:29:00,
2013-11-28 01:34:00,33.0,30.1,30.06,NW,315,0.0,0.0,89,0.00,,CLR,0.00,VWS V14.01,2013-11-28 09:34:00,
2013-11-28 01:39:00,33.0,30.1,30.06,NW,315,0.0,0.0,89,0.00,,CLR,0.00,VWS V14.01,2013-11-28 09:39:00,
2013-11-28 01:44:00,32.9,30.0,30.06,NW,315,0.0,0.0,89,0.00,,CLR,0.00,VWS V14.01,2013-11-28 09:44:00,
2013-11-28 01:49:00,32.9,30.3,30.06,NW,315,0.0,0.0,90,0.00,,CLR,0.00,VWS V14.01,2013-11-28 09:49:00,
2013-11-28 01:54:00,32.9,30.3,30.06,NW,315,0.0,0.0,90,0.00,,CLR,0.00,VWS V14.01,2013-11-28 09:54:00,
2013-11-28 01:59:00,32.7,30.1,30.06,NW,315,0.0,0.0,90,0.00,,CLR,0.00,VWS V14.01,2013-11-28 09:59:00,
2013-11-28 02:04:00,32.7,30.1,30.06,NW,315,0.0,0.0,90,0.00,,CLR,0.00,VWS V14.01,2013-11-28 10:04:00,
2013-11-28 02:09:00,32.7,30.1,30.06,NW,315,0.0,0.0,90,0.00,,CLR,0.00,VWS V14.01,2013-11-28 10:09:00,
2013-11-28 02:15:00,32.7,30.1,30.07,NW,315,0.0,0.0,90,0.00,,CLR,0.00,VWS V14.01,2013-11-28 10:15:00,
2013-11-28 02:20:00,32.7,30.1,30.07,NW,315,0.0,0.0,90,0.00,,CLR,0.00,VWS V14.01,2013-11-28 10:20:00,
2013-11-28 02:25:00,32.7,30.1,30.06,NW,315,0.0,0.0,90,0.00,,CLR,0.00,VWS V14.01,2013-11-28 10:25:00,
2013-11-28 02:30:00,32.7,30.1,30.06,NW,315,0.0,0.0,90,0.00,,CLR,0.00,VWS V14.01,2013-11-28 10:30:00,
2013-11-28 02:35:00,32.7,30.1,30.06,NW,315,0.0,0.0,90,0.00,,CLR,0.00,VWS V14.01,2013-11-28 10:35:00,
2013-11-28 02:40:00,32.7,30.1,30.06,NW,315,0.0,0.0,90,0.00,,CLR,0.00,VWS V14.01,2013-11-28 10:40:00,
2013-11-28 02:45:00,32.7,30.1,30.06,NW,315,0.0,0.0,90,0.00,,CLR,0.00,VWS V14.01,2013-11-28 10:45:00,
2013-11-28 02:50:00,32.7,30.1,30.06,NW,315,0.0,0.0,90,0.00,,CLR,0.00,VWS V14.01,2013-11-28 10:50:00,
2013-11-28 02:55:00,32.7,30.1,30.06,NW,315,0.0,0.0,90,0.00,,CLR,0.00,VWS V14.01,2013-11-28 10:55:00,
2013-11-28 03:00:00,32.7,30.1,30.06,NW,315,0.0,0.0,90,0.00,,CLR,0.00,VWS V14.01,2013-11-28 11:00:00,
2013-11-28 03:05:00,32.7,30.1,30.06,NW,315,0.0,0.0,90,0.00,,CLR,0.00,VWS V14.01,2013-11-28 11:05:00,
2013-11-28 03:10:00,32.7,30.1,30.06,NW,315,0.0,0.0,90,0.00,,CLR,0.00,VWS V14.01,2013-11-28 11:10:00,
2013-11-28 03:15:00,32.7,30.1,30.06,NW,315,0.0,0.0,90,0.00,,CLR,0.00,VWS V14.01,2013-11-28 11:15:00,
2013-11-28 03:20:00,32.7,30.1,30.06,NW,315,0.0,0.0,90,0.00,,CLR,0.00,VWS V14.01,2013-11-28 11:20:00,
2013-11-28 03:25:00,32.7,30.1,30.06,NW,315,0.0,0.0,90,0.00,,CLR,0.00,VWS V14.01,2013-11-28 11:25:00,
2013-11-28 03:30:00,32.1,29.5,30.07,NW,315,0.0,0.0,90,0.00,,CLR,0.00,VWS V14.01,2013-11-28 11:30:00,
2013-11-28 03:35:00,32.1,29.5,30.07,NW,315,0.0,0.0,90,0.00,,CLR,0.00,VWS V14.01,2013-11-28 11:35:00,
2013-11-28 03:40:00,32.0,29.4,30.06,NW,315,0.0,0.0,90,0.00,,CLR,0.00,VWS V14.01,2013-11-28 11:40:00,
2013-11-28 03:45:00,32.0,29.4,30.06,NW,315,0.0,0.0,90,0.00,,CLR,0.00,VWS V14.01,2013-11-28 11:45:00,
2013-11-28 03:50:00,31.8,29.2,30.06,NW,315,0.0,0.0,90,0.00,,CLR,0.00,VWS V14.01,2013-11-28 11:50:00,
2013-11-28 03:55:00,31.8,29.2,30.06,NW,315,0.0,0.0,90,0.00,,CLR,0.00,VWS V14.01,2013-11-28 11:55:00,
2013-11-28 04:00:00,31.8,29.2,30.06,NW,315,0.0,0.0,90,0.00,,CLR,0.00,VWS V14.01,2013-11-28 12:00:00,
2013-11-28 04:05:00,31.8,29.2,30.06,NW,315,0.0,0.0,90,0.00,,CLR,0.00,VWS V14.01,2013-11-28 12:05:00,
2013-11-28 04:10:00,31.8,29.2,30.06,NW,315,0.0,0.0,90,0.00,,CLR,0.00,VWS V14.01,2013-11-28 12:10:00,
2013-11-28 04:15:00,31.6,29.0,30.06,NW,315,0.0,0.0,90,0.00,,CLR,0.00,VWS V14.01,2013-11-28 12:15:00,
2013-11-28 04:20:00,31.6,29.0,30.06,NW,315,0.0,0.0,90,0.00,,CLR,0.00,VWS V14.01,2013-11-28 12:20:00,
2013-11-28 04:25:00,31.6,29.0,30.06,NW,315,0.0,0.0,90,0.00,,CLR,0.00,VWS V14.01,2013-11-28 12:25:00,
2013-11-28 04:30:00,31.6,29.0,30.07,NW,315,0.0,0.0,90,0.00,,CLR,0.00,VWS V14.01,2013-11-28 12:30:00,
2013-11-28 04:35:00,31.4,28.8,30.07,NW,315,0.0,0.0,90,0.00,,CLR,0.00,VWS V14.01,2013-11-28 12:35:00,
2013-11-28 04:40:00,31.4,28.8,30.07,NW,315,0.0,0.0,90,0.00,,CLR,0.00,VWS V14.01,2013-11-28 12:40:00,
2013-11-28 04:45:00,31.4,28.8,30.06,NW,315,0.0,0.0,90,0.00,,CLR,0.00,VWS V14.01,2013-11-28 12:45:00,
2013-11-28 04:50:00,31.4,28.8,30.06,NW,315,0.0,0.0,90,0.00,,CLR,0.00,VWS V14.01,2013-11-28 12:50:00,
2013-11-28 04:55:00,31.4,28.8,30.06,NW,315,0.0,0.0,90,0.00,,CLR,0.00,VWS V14.01,2013-11-28 12:55:00,
2013-11-28 05:00:00,31.4,28.8,30.06,NW,315,0.0,0.0,90,0.00,,CLR,0.00,VWS V14.01,2013-11-28 13:00:00,
2013-11-28 05:05:00,31.4,28.8,30.06,NW,315,0.0,0.0,90,0.00,,CLR,0.00,VWS V14.01,2013-11-28 13:05:00,
2013-11-28 05:10:00,31.4,28.8,30.06,NW,315,0.0,0.0,90,0.00,,CLR,0.00,VWS V14.01,2013-11-28 13:10:00,
2013-11-28 05:15:00,31.4,28.8,30.06,NW,315,0.0,0.0,90,0.00,,CLR,0.00,VWS V14.01,2013-11-28 13:15:00,
2013-11-28 05:20:00,31.4,28.8,30.06,NW,315,0.0,0.0,90,0.00,,CLR,0.00,VWS V14.01,2013-11-28 13:20:00,
2013-11-28 05:25:00,31.4,28.8,30.06,NW,315,0.0,0.0,90,0.00,,CLR,0.00,VWS V14.01,2013-11-28 13:25:00,
2013-11-28 05:30:00,31.1,28.5,30.07,NW,315,0.0,0.0,90,0.00,,CLR,0.00,VWS V14.01,2013-11-28 13:30:00,
2013-11-28 05:35:00,30.9,28.3,30.07,NW,315,0.0,0.0,90,0.00,,CLR,0.00,VWS V14.01,2013-11-28 13:35:00,
2013-11-28 05:40:00,30.9,28.3,30.07,NW,315,0.0,0.0,90,0.00,,CLR,0.00,VWS V14.01,2013-11-28 13:40:00,
2013-11-28 05:46:00,30.9,28.3,30.07,NW,315,0.0,0.0,90,0.00,,CLR,0.00,VWS V14.01,2013-11-28 13:46:00,
2013-11-28 05:51:00,30.9,28.3,30.08,NW,315,0.0,0.0,90,0.00,,CLR,0.00,VWS V14.01,2013-11-28 13:51:00,
2013-11-28 05:56:00,30.7,28.1,30.07,NW,315,0.0,0.0,90,0.00,,CLR,0.00,VWS V14.01,2013-11-28 13:56:00,
2013-11-28 06:01:00,30.7,28.1,30.07,NW,315,0.0,0.0,90,0.00,,CLR,0.00,VWS V14.01,2013-11-28 14:01:00,
2013-11-28 06:06:00,30.7,28.1,30.07,NW,315,0.0,0.0,90,0.00,,CLR,0.00,VWS V14.01,2013-11-28 14:06:00,
2013-11-28 06:11:00,30.7,28.1,30.08,NW,315,0.0,0.0,90,0.00,,CLR,0.00,VWS V14.01,2013-11-28 14:11:00,
2013-11-28 06:16:00,30.7,28.1,30.08,NW,315,0.0,0.0,90,0.00,,CLR,0.00,VWS V14.01,2013-11-28 14:16:00,
2013-11-28 06:21:00,30.7,28.1,30.08,NW,315,0.0,0.0,90,0.00,,CLR,0.00,VWS V14.01,2013-11-28 14:21:00,
2013-11-28 06:26:00,30.7,28.1,30.08,NW,315,0.0,0.0,90,0.00,,CLR,0.00,VWS V14.01,2013-11-28 14:26:00,
2013-11-28 06:31:00,30.7,28.1,30.08,NW,315,0.0,0.0,90,0.00,,CLR,0.00,VWS V14.01,2013-11-28 14:31:00,
2013-11-28 06:36:00,30.7,28.1,30.08,NW,315,0.0,0.0,90,0.00,,CLR,0.00,VWS V14.01,2013-11-28 14:36:00,
2013-11-28 06:41:00,30.7,28.1,30.08,NW,315,0.0,0.0,90,0.00,,CLR,0.00,VWS V14.01,2013-11-28 14:41:00,
2013-11-28 06:46:00,30.7,28.1,30.08,NW,315,0.0,0.0,90,0.00,,CLR,0.00,VWS V14.01,2013-11-28 14:46:00,
2013-11-28 06:51:00,30.7,28.1,30.08,NW,315,0.0,0.0,90,0.00,,CLR,0.00,VWS V14.01,2013-11-28 14:51:00,
2013-11-28 06:56:00,30.7,28.1,30.08,NW,315,0.0,0.0,90,0.00,,CLR,0.00,VWS V14.01,2013-11-28 14:56:00,
2013-11-28 07:01:00,30.7,28.1,30.08,NW,315,0.0,0.0,90,0.00,,CLR,0.00,VWS V14.01,2013-11-28 15:01:00,
2013-11-28 07:06:00,30.7,28.1,30.08,NW,315,0.0,0.0,90,0.00,,CLR,0.00,VWS V14.01,2013-11-28 15:06:00,
2013-11-28 07:11:00,30.7,28.1,30.08,NW,315,0.0,0.0,90,0.00,,CLR,0.00,VWS V14.01,2013-11-28 15:11:00,
2013-11-28 07:16:00,30.7,28.1,30.09,NW,315,0.0,0.0,90,0.00,,CLR,0.00,VWS V14.01,2013-11-28 15:16:00,
2013-11-28 07:21:00,30.7,28.1,30.09,NW,315,0.0,0.0,90,0.00,,CLR,0.00,VWS V14.01,2013-11-28 15:21:00,
2013-11-28 07:26:00,30.7,28.1,30.09,NW,315,0.0,0.0,90,0.00,,CLR,0.00,VWS V14.01,2013-11-28 15:26:00,
2013-11-28 07:31:00,30.7,28.1,30.09,NW,315,0.0,0.0,90,0.00,,CLR,0.00,VWS V14.01,2013-11-28 15:31:00,
2013-11-28 07:36:00,30.7,28.1,30.09,NW,315,0.0,0.0,90,0.00,,CLR,0.00,VWS V14.01,2013-11-28 15:36:00,
2013-11-28 07:41:00,30.7,28.1,30.09,NW,315,0.0,0.0,90,0.00,,CLR,0.00,VWS V14.01,2013-11-28 15:41:00,
2013-11-28 07:46:00,30.7,28.1,30.09,NW,315,0.0,0.0,90,0.00,,CLR,0.00,VWS V14.01,2013-11-28 15:46:00,
2013-11-28 07:52:00,30.7,28.1,30.09,NW,315,0.0,0.0,90,0.00,,CLR,0.00,VWS V14.01,2013-11-28 15:52:00,
2013-11-28 07:57:00,30.7,28.1,30.10,NW,315,0.0,0.0,90,0.00,,CLR,0.00,VWS V14.01,2013-11-28 15:57:00,
2013-11-28 08:02:00,30.5,27.9,30.10,NW,315,0.0,0.0,90,0.00,,CLR,0.00,VWS V14.01,2013-11-28 16:02:00,
2013-11-28 08:07:00,30.5,27.9,30.10,NW,315,0.0,0.0,90,0.00,,CLR,0.00,VWS V14.01,2013-11-28 16:07:00,
2013-11-28 08:12:00,30.5,27.9,30.10,NW,315,0.0,0.0,90,0.00,,CLR,0.00,VWS V14.01,2013-11-28 16:12:00,
2013-11-28 08:17:00,30.5,27.9,30.10,NW,315,0.0,0.0,90,0.00,,CLR,0.00,VWS V14.01,2013-11-28 16:17:00,
2013-11-28 08:22:00,30.5,27.9,30.10,NW,315,0.0,0.0,90,0.00,,CLR,0.00,VWS V14.01,2013-11-28 16:22:00,
2013-11-28 08:27:00,30.9,28.3,30.10,NW,315,0.0,0.0,90,0.00,,CLR,0.00,VWS V14.01,2013-11-28 16:27:00,
2013-11-28 08:32:00,31.2,28.6,30.11,NW,315,0.0,0.0,90,0.00,,CLR,0.00,VWS V14.01,2013-11-28 16:32:00,
2013-11-28 08:37:00,31.8,29.2,30.11,NW,315,0.0,0.0,90,0.00,,CLR,0.00,VWS V14.01,2013-11-28 16:37:00,
2013-11-28 08:42:00,32.0,29.4,30.11,NW,315,0.0,0.0,90,0.00,,CLR,0.00,VWS V14.01,2013-11-28 16:42:00,
2013-11-28 08:47:00,32.3,30.0,30.11,NW,315,0.0,0.0,91,0.00,,CLR,0.00,VWS V14.01,2013-11-28 16:47:00,
2013-11-28 08:52:00,32.7,30.4,30.11,NW,315,0.0,0.0,91,0.00,,CLR,0.00,VWS V14.01,2013-11-28 16:52:00,
2013-11-28 08:57:00,33.4,31.1,30.11,NW,315,0.0,0.0,91,0.00,,CLR,0.00,VWS V14.01,2013-11-28 16:57:00,
2013-11-28 09:02:00,33.6,31.0,30.11,NW,315,0.0,0.0,90,0.00,,CLR,0.00,VWS V14.01,2013-11-28 17:02:00,
2013-11-28 09:07:00,34.3,31.7,30.11,NW,315,0.0,0.0,90,0.00,,CLR,0.00,VWS V14.01,2013-11-28 17:07:00,
2013-11-28 09:12:00,34.7,32.1,30.11,NW,315,0.0,0.0,90,0.00,,CLR,0.00,VWS V14.01,2013-11-28 17:12:00,
2013-11-28 09:17:00,34.8,32.2,30.11,NW,315,0.0,0.0,90,0.00,,CLR,0.00,VWS V14.01,2013-11-28 17:17:00,
2013-11-28 09:22:00,34.5,31.9,30.11,NW,315,0.0,0.0,90,0.00,,CLR,0.00,VWS V14.01,2013-11-28 17:22:00,
2013-11-28 09:27:00,34.5,31.9,30.11,NW,315,0.0,0.0,90,0.00,,CLR,0.00,VWS V14.01,2013-11-28 17:27:00,
2013-11-28 09:32:00,34.8,32.2,30.11,NW,315,0.0,0.0,90,0.00,,CLR,0.00,VWS V14.01,2013-11-28 17:32:00,
2013-11-28 09:37:00,35.4,32.8,30.11,NW,315,0.0,0.0,90,0.00,,CLR,0.00,VWS V14.01,2013-11-28 17:37:00,
2013-11-28 09:42:00,35.9,33.3,30.11,NW,315,0.0,0.0,90,0.00,,CLR,0.00,VWS V14.01,2013-11-28 17:42:00,
2013-11-28 09:47:00,36.1,33.5,30.11,NW,315,0.0,0.0,90,0.00,,CLR,0.00,VWS V14.01,2013-11-28 17:47:00,
2013-11-28 09:52:00,36.3,33.7,30.11,NW,315,0.0,0.0,90,0.00,,CLR,0.00,VWS V14.01,2013-11-28 17:52:00,
2013-11-28 09:57:00,36.6,34.0,30.11,NW,315,0.0,0.0,90,0.00,,CLR,0.00,VWS V14.01,2013-11-28 17:57:00,
2013-11-28 10:02:00,37.2,34.5,30.11,NW,315,0.0,0.0,90,0.00,,CLR,0.00,VWS V14.01,2013-11-28 18:02:00,
2013-11-28 10:07:00,37.5,34.8,30.11,NW,315,0.0,0.0,90,0.00,,CLR,0.00,VWS V14.01,2013-11-28 18:07:00,
2013-11-28 10:12:00,37.9,35.2,30.12,NW,315,0.0,0.0,90,0.00,,CLR,0.00,VWS V14.01,2013-11-28 18:12:00,
2013-11-28 10:17:00,38.4,35.7,30.12,NNW,338,0.0,0.0,90,0.00,,CLR,0.00,VWS V14.01,2013-11-28 18:17:00,
2013-11-28 10:22:00,39.0,36.3,30.13,North,0,0.0,0.0,90,0.00,,CLR,0.00,VWS V14.01,2013-11-28 18:22:00,
2013-11-28 10:28:00,39.3,36.6,30.13,NNE,22,2.0,2.0,90,0.00,,CLR,0.00,VWS V14.01,2013-11-28 18:28:00,
2013-11-28 10:33:00,39.7,37.0,30.13,NE,45,0.0,0.0,90,0.00,,CLR,0.00,VWS V14.01,2013-11-28 18:33:00,
2013-11-28 10:38:00,39.9,37.2,30.13,NE,45,0.0,0.0,90,0.00,,CLR,0.00,VWS V14.01,2013-11-28 18:38:00,
2013-11-28 10:43:00,40.1,37.4,30.12,NE,45,0.0,0.0,90,0.00,,CLR,0.00,VWS V14.01,2013-11-28 18:43:00,
2013-11-28 10:48:00,40.1,37.1,30.12,NE,45,0.0,0.0,89,0.00,,CLR,0.00,VWS V14.01,2013-11-28 18:48:00,
2013-11-28 10:53:00,40.2,37.2,30.12,NE,45,0.0,0.0,89,0.00,,CLR,0.00,VWS V14.01,2013-11-28 18:53:00,
2013-11-28 10:58:00,40.4,37.4,30.11,NE,45,0.0,0.0,89,0.00,,CLR,0.00,VWS V14.01,2013-11-28 18:58:00,
2013-11-28 11:03:00,41.0,38.0,30.11,NE,45,0.0,0.0,89,0.00,,CLR,0.00,VWS V14.01,2013-11-28 19:03:00,
2013-11-28 11:09:00,41.5,38.5,30.12,NE,45,0.0,0.0,89,0.00,,CLR,0.00,VWS V14.01,2013-11-28 19:09:00,
2013-11-28 11:14:00,42.0,39.0,30.12,NE,45,0.0,0.0,89,0.00,,CLR,0.00,VWS V14.01,2013-11-28 19:14:00,
2013-11-28 11:19:00,43.1,40.1,30.11,NE,45,0.0,0.0,89,0.00,,CLR,0.00,VWS V14.01,2013-11-28 19:19:00,
2013-11-28 11:24:00,44.4,41.4,30.12,NE,45,0.0,0.0,89,0.00,,CLR,0.00,VWS V14.01,2013-11-28 19:24:00,
2013-11-28 11:29:00,44.9,41.9,30.12,NE,45,0.0,0.0,89,0.00,,CLR,0.00,VWS V14.01,2013-11-28 19:29:00,
2013-11-28 11:34:00,45.6,42.3,30.12,NE,45,0.0,0.0,88,0.00,,CLR,0.00,VWS V14.01,2013-11-28 19:34:00,
2013-11-28 11:40:00,46.5,43.1,30.11,NE,45,0.0,0.0,88,0.00,,CLR,0.00,VWS V14.01,2013-11-28 19:40:00,
2013-11-28 11:45:00,47.1,43.7,30.11,NE,45,0.0,0.0,88,0.00,,CLR,0.00,VWS V14.01,2013-11-28 19:45:00,
2013-11-28 11:50:00,47.6,43.9,30.11,ENE,68,0.0,0.0,87,0.00,,CLR,0.00,VWS V14.01,2013-11-28 19:50:00,
2013-11-28 11:55:00,48.7,45.0,30.11,ESE,112,0.0,0.0,87,0.00,,CLR,0.00,VWS V14.01,2013-11-28 19:55:00,
2013-11-28 12:00:00,49.2,45.2,30.11,ESE,112,0.0,0.0,86,0.00,,CLR,0.00,VWS V14.01,2013-11-28 20:00:00,
2013-11-28 12:05:00,49.8,45.5,30.11,East,90,0.0,0.0,85,0.00,,CLR,0.00,VWS V14.01,2013-11-28 20:05:00,
2013-11-28 12:10:00,49.6,44.7,30.11,East,90,0.0,0.0,83,0.00,,CLR,0.00,VWS V14.01,2013-11-28 20:10:00,
2013-11-28 12:15:00,49.2,44.3,30.10,East,90,0.0,0.0,83,0.00,,CLR,0.00,VWS V14.01,2013-11-28 20:15:00,
2013-11-28 12:20:00,48.9,44.0,30.11,NE,45,0.0,0.0,83,0.00,,CLR,0.00,VWS V14.01,2013-11-28 20:20:00,
2013-11-28 12:25:00,48.7,43.8,30.10,NE,45,0.0,0.0,83,0.00,,CLR,0.00,VWS V14.01,2013-11-28 20:25:00,
2013-11-28 12:30:00,48.3,43.7,30.10,NE,45,0.0,0.0,84,0.00,,CLR,0.00,VWS V14.01,2013-11-28 20:30:00,
2013-11-28 12:35:00,48.3,43.7,30.10,NE,45,0.0,0.0,84,0.00,,CLR,0.00,VWS V14.01,2013-11-28 20:35:00,
2013-11-28 12:40:00,48.2,43.6,30.10,NE,45,0.0,0.0,84,0.00,,CLR,0.00,VWS V14.01,2013-11-28 20:40:00,
2013-11-28 12:45:00,48.2,43.6,30.10,ESE,112,0.0,0.0,84,0.00,,CLR,0.00,VWS V14.01,2013-11-28 20:45:00,
2013-11-28 12:50:00,48.0,43.4,30.10,NE,45,0.0,0.0,84,0.00,,CLR,0.00,VWS V14.01,2013-11-28 20:50:00,
2013-11-28 12:55:00,48.0,43.4,30.10,NE,45,0.0,0.0,84,0.00,,CLR,0.00,VWS V14.01,2013-11-28 20:55:00,
2013-11-28 13:00:00,48.0,43.4,30.11,NNE,22,0.0,3.3,84,0.00,,CLR,0.00,VWS V14.01,2013-11-28 21:00:00,
2013-11-28 13:05:00,48.0,43.4,30.11,NNE,22,0.0,0.0,84,0.00,,CLR,0.00,VWS V14.01,2013-11-28 21:05:00,
2013-11-28 13:10:00,48.0,43.4,30.11,NNE,22,0.0,0.0,84,0.00,,CLR,0.00,VWS V14.01,2013-11-28 21:10:00,
2013-11-28 13:15:00,48.0,43.4,30.11,NNE,22,0.0,0.0,84,0.00,,CLR,0.00,VWS V14.01,2013-11-28 21:15:00,
2013-11-28 13:20:00,49.8,45.5,30.10,NNE,22,0.0,0.0,85,0.00,,CLR,0.00,VWS V14.01,2013-11-28 21:20:00,
2013-11-28 13:25:00,52.8,46.8,30.11,NNE,22,0.0,0.0,80,0.00,,CLR,0.00,VWS V14.01,2013-11-28 21:25:00,
2013-11-28 13:30:00,52.8,46.1,30.11,NNE,22,0.0,0.0,78,0.00,,CLR,0.00,VWS V14.01,2013-11-28 21:30:00,
2013-11-28 13:36:00,51.2,44.6,30.11,NNE,22,0.0,0.0,78,0.00,,CLR,0.00,VWS V14.01,2013-11-28 21:36:00,
2013-11-28 13:41:00,50.1,43.8,30.11,NNE,22,0.0,0.0,79,0.00,,CLR,0.00,VWS V14.01,2013-11-28 21:41:00,
2013-11-28 13:46:00,48.9,43.3,30.10,NNE,22,0.0,0.0,81,0.00,,CLR,0.00,VWS V14.01,2013-11-28 21:46:00,
2013-11-28 13:51:00,48.5,43.0,30.11,NNE,22,0.0,0.0,81,0.00,,CLR,0.00,VWS V14.01,2013-11-28 21:51:00,
2013-11-28 13:56:00,48.0,42.8,30.10,NNE,22,0.0,0.0,82,0.00,,CLR,0.00,VWS V14.01,2013-11-28 21:56:00,
2013-11-28 14:01:00,47.8,42.9,30.11,NNE,22,0.0,0.0,83,0.00,,CLR,0.00,VWS V14.01,2013-11-28 22:01:00,
2013-11-28 14:06:00,47.8,42.9,30.11,NNE,22,0.0,0.0,83,0.00,,CLR,0.00,VWS V14.01,2013-11-28 22:06:00,
2013-11-28 14:12:00,47.6,42.7,30.11,NNE,22,0.0,0.0,83,0.00,,CLR,0.00,VWS V14.01,2013-11-28 22:12:00,
2013-11-28 14:17:00,47.4,42.8,30.11,NNE,22,0.0,0.0,84,0.00,,CLR,0.00,VWS V14.01,2013-11-28 22:17:00,
2013-11-28 14:22:00,47.4,42.8,30.11,NNE,22,0.0,0.0,84,0.00,,CLR,0.00,VWS V14.01,2013-11-28 22:22:00,
2013-11-28 14:27:00,47.3,42.7,30.11,NNE,22,0.0,0.0,84,0.00,,CLR,0.00,VWS V14.01,2013-11-28 22:27:00,
2013-11-28 14:32:00,47.3,42.7,30.11,NNE,22,0.0,0.0,84,0.00,,CLR,0.00,VWS V14.01,2013-11-28 22:32:00,
2013-11-28 14:37:00,47.1,42.5,30.11,NNE,22,0.0,0.0,84,0.00,,CLR,0.00,VWS V14.01,2013-11-28 22:37:00,
2013-11-28 14:42:00,47.1,42.5,30.11,NNE,22,0.0,0.0,84,0.00,,CLR,0.00,VWS V14.01,2013-11-28 22:42:00,
2013-11-28 14:47:00,46.9,42.3,30.11,NNE,22,0.0,0.0,84,0.00,,CLR,0.00,VWS V14.01,2013-11-28 22:47:00,
2013-11-28 14:52:00,46.7,42.1,30.11,NNE,22,0.0,0.0,84,0.00,,CLR,0.00,VWS V14.01,2013-11-28 22:52:00,
2013-11-28 14:58:00,46.7,42.1,30.12,NNE,22,0.0,0.0,84,0.00,,CLR,0.00,VWS V14.01,2013-11-28 22:58:00,
2013-11-28 15:03:00,46.5,41.9,30.11,NNE,22,0.0,0.0,84,0.00,,CLR,0.00,VWS V14.01,2013-11-28 23:03:00,
2013-11-28 15:08:00,46.5,41.9,30.11,NNE,22,0.0,0.0,84,0.00,,CLR,0.00,VWS V14.01,2013-11-28 23:08:00,
2013-11-28 15:13:00,46.5,41.9,30.11,NNE,22,0.0,0.0,84,0.00,,CLR,0.00,VWS V14.01,2013-11-28 23:13:00,
2013-11-28 15:18:00,46.2,41.6,30.11,NNE,22,0.0,0.0,84,0.00,,CLR,0.00,VWS V14.01,2013-11-28 23:18:00,
2013-11-28 15:23:00,46.4,42.1,30.11,NNE,22,0.0,0.0,85,0.00,,CLR,0.00,VWS V14.01,2013-11-28 23:23:00,
2013-11-28 15:28:00,46.4,42.1,30.11,NNE,22,0.0,0.0,85,0.00,,CLR,0.00,VWS V14.01,2013-11-28 23:28:00,
2013-11-28 15:33:00,46.2,42.0,30.12,NNE,22,0.0,0.0,85,0.00,,CLR,0.00,VWS V14.01,2013-11-28 23:33:00,
2013-11-28 15:38:00,46.2,42.0,30.11,NNE,22,0.0,0.0,85,0.00,,CLR,0.00,VWS V14.01,2013-11-28 23:38:00,
2013-11-28 15:43:00,46.0,41.8,30.12,NNE,22,0.0,0.0,85,0.00,,CLR,0.00,VWS V14.01,2013-11-28 23:43:00,
2013-11-28 15:48:00,46.0,41.8,30.12,NNE,22,0.0,0.0,85,0.00,,CLR,0.00,VWS V14.01,2013-11-28 23:48:00,
2013-11-28 15:53:00,45.6,41.4,30.12,NNE,22,0.0,0.0,85,0.00,,CLR,0.00,VWS V14.01,2013-11-28 23:53:00,
2013-11-28 15:58:00,45.6,41.4,30.12,NNE,22,0.0,0.0,85,0.00,,CLR,0.00,VWS V14.01,2013-11-28 23:58:00,
2013-11-28 16:03:00,45.5,41.3,30.13,NNE,22,0.0,0.0,85,0.00,,CLR,0.00,VWS V14.01,2013-11-29 00:03:00,
2013-11-28 16:08:00,45.3,41.1,30.13,NNE,22,0.0,0.0,85,0.00,,CLR,0.00,VWS V14.01,2013-11-29 00:08:00,
2013-11-28 16:13:00,45.1,40.9,30.12,NNE,22,0.0,0.0,85,0.00,,CLR,0.00,VWS V14.01,2013-11-29 00:13:00,
2013-11-28 16:18:00,44.9,40.7,30.13,NNE,22,0.0,0.0,85,0.00,,CLR,0.00,VWS V14.01,2013-11-29 00:18:00,
2013-11-28 16:23:00,44.6,40.4,30.13,NNE,22,0.0,0.0,85,0.00,,CLR,0.00,VWS V14.01,2013-11-29 00:23:00,
2013-11-28 16:28:00,44.4,40.2,30.13,NNE,22,0.0,0.0,85,0.00,,CLR,0.00,VWS V14.01,2013-11-29 00:28:00,
2013-11-28 16:33:00,44.0,39.8,30.12,NNE,22,0.0,0.0,85,0.00,,CLR,0.00,VWS V14.01,2013-11-29 00:33:00,
2013-11-28 16:38:00,43.7,39.5,30.13,NNE,22,0.0,0.0,85,0.00,,CLR,0.00,VWS V14.01,2013-11-29 00:38:00,
2013-11-28 16:43:00,43.5,39.3,30.13,NNE,22,0.0,0.0,85,0.00,,CLR,0.00,VWS V14.01,2013-11-29 00:43:00,
2013-11-28 16:48:00,43.3,39.4,30.13,NNE,22,0.0,0.0,86,0.00,,CLR,0.00,VWS V14.01,2013-11-29 00:48:00,
2013-11-28 16:53:00,42.9,39.0,30.13,NNE,22,0.0,0.0,86,0.00,,CLR,0.00,VWS V14.01,2013-11-29 00:53:00,
2013-11-28 16:58:00,42.6,38.7,30.13,NNE,22,0.0,0.0,86,0.00,,CLR,0.00,VWS V14.01,2013-11-29 00:58:00,
2013-11-28 17:03:00,42.4,38.5,30.13,NNE,22,0.0,0.0,86,0.00,,CLR,0.00,VWS V14.01,2013-11-29 01:03:00,
2013-11-28 17:09:00,42.0,38.1,30.14,NNE,22,0.0,0.0,86,0.00,,CLR,0.00,VWS V14.01,2013-11-29 01:09:00,
2013-11-28 17:14:00,42.0,38.1,30.14,NNE,22,0.0,0.0,86,0.00,,CLR,0.00,VWS V14.01,2013-11-29 01:14:00,
2013-11-28 17:19:00,41.7,37.8,30.13,NNE,22,0.0,0.0,86,0.00,,CLR,0.00,VWS V14.01,2013-11-29 01:19:00,
2013-11-28 17:24:00,41.5,37.9,30.14,NNE,22,0.0,0.0,87,0.00,,CLR,0.00,VWS V14.01,2013-11-29 01:24:00,
2013-11-28 17:29:00,41.5,37.9,30.14,NNE,22,0.0,0.0,87,0.00,,CLR,0.00,VWS V14.01,2013-11-29 01:29:00,
2013-11-28 17:34:00,41.5,37.9,30.14,NNE,22,0.0,0.0,87,0.00,,CLR,0.00,VWS V14.01,2013-11-29 01:34:00,
2013-11-28 17:39:00,41.5,37.9,30.14,NNE,22,0.0,0.0,87,0.00,,CLR,0.00,VWS V14.01,2013-11-29 01:39:00,
2013-11-28 17:44:00,41.5,37.9,30.14,NNE,22,0.0,0.0,87,0.00,,CLR,0.00,VWS V14.01,2013-11-29 01:44:00,
2013-11-28 17:49:00,41.5,38.2,30.14,NNE,22,0.0,0.0,88,0.00,,CLR,0.00,VWS V14.01,2013-11-29 01:49:00,
2013-11-28 17:54:00,41.5,38.2,30.14,NNE,22,0.0,0.0,88,0.00,,CLR,0.00,VWS V14.01,2013-11-29 01:54:00,
2013-11-28 17:59:00,41.5,38.2,30.14,NNE,22,0.0,0.0,88,0.00,,CLR,0.00,VWS V14.01,2013-11-29 01:59:00,
2013-11-28 18:04:00,41.5,38.2,30.14,NNE,22,0.0,0.0,88,0.00,,CLR,0.00,VWS V14.01,2013-11-29 02:04:00,
2013-11-28 18:09:00,41.7,38.4,30.14,NNE,22,0.0,0.0,88,0.00,,CLR,0.00,VWS V14.01,2013-11-29 02:09:00,
2013-11-28 18:14:00,41.7,38.4,30.14,NNE,22,0.0,0.0,88,0.00,,CLR,0.00,VWS V14.01,2013-11-29 02:14:00,
2013-11-28 18:19:00,41.5,38.2,30.14,SE,135,0.0,0.0,88,0.00,,CLR,0.00,VWS V14.01,2013-11-29 02:19:00,
2013-11-28 18:24:00,41.1,37.5,30.14,SE,135,0.0,0.0,87,0.00,,CLR,0.00,VWS V14.01,2013-11-29 02:24:00,
2013-11-28 18:29:00,40.8,37.2,30.14,SE,135,0.0,0.0,87,0.00,,CLR,0.00,VWS V14.01,2013-11-29 02:29:00,
2013-11-28 18:34:00,40.8,37.2,30.14,SE,135,0.0,0.0,87,0.00,,CLR,0.00,VWS V14.01,2013-11-29 02:34:00,
2013-11-28 18:39:00,40.8,37.5,30.14,SE,135,0.0,0.0,88,0.00,,CLR,0.00,VWS V14.01,2013-11-29 02:39:00,
2013-11-28 18:44:00,40.8,37.5,30.15,SE,135,0.0,0.0,88,0.00,,CLR,0.00,VWS V14.01,2013-11-29 02:44:00,
2013-11-28 18:49:00,40.8,37.5,30.14,SE,135,0.0,0.0,88,0.00,,CLR,0.00,VWS V14.01,2013-11-29 02:49:00,
2013-11-28 18:54:00,40.8,37.5,30.15,SE,135,0.0,0.0,88,0.00,,CLR,0.00,VWS V14.01,2013-11-29 02:54:00,
2013-11-28 18:59:00,40.8,37.5,30.15,SE,135,0.0,0.0,88,0.00,,CLR,0.00,VWS V14.01,2013-11-29 02:59:00,
2013-11-28 19:04:00,40.8,37.5,30.15,SE,135,0.0,0.0,88,0.00,,CLR,0.00,VWS V14.01,2013-11-29 03:04:00,
2013-11-28 19:09:00,40.6,37.0,30.14,SE,135,0.0,0.0,87,0.00,,CLR,0.00,VWS V14.01,2013-11-29 03:09:00,
2013-11-28 19:14:00,40.4,36.8,30.14,SE,135,0.0,0.0,87,0.00,,CLR,0.00,VWS V14.01,2013-11-29 03:14:00,
2013-11-28 19:19:00,40.6,37.0,30.15,SE,135,0.0,0.0,87,0.00,,CLR,0.00,VWS V14.01,2013-11-29 03:19:00,
2013-11-28 19:24:00,40.6,37.0,30.15,SE,135,0.0,0.0,87,0.00,,CLR,0.00,VWS V14.01,2013-11-29 03:24:00,
2013-11-28 19:30:00,40.4,36.8,30.15,SE,135,0.0,0.0,87,0.00,,CLR,0.00,VWS V14.01,2013-11-29 03:30:00,
2013-11-28 19:35:00,40.1,36.5,30.16,SE,135,0.0,0.0,87,0.00,,CLR,0.00,VWS V14.01,2013-11-29 03:35:00,
2013-11-28 19:40:00,39.3,35.5,30.16,SE,135,0.0,0.0,86,0.00,,CLR,0.00,VWS V14.01,2013-11-29 03:40:00,
2013-11-28 19:45:00,39.0,35.2,30.16,SE,135,0.0,0.0,86,0.00,,CLR,0.00,VWS V14.01,2013-11-29 03:45:00,
2013-11-28 19:50:00,38.4,34.9,30.15,SE,135,0.0,0.0,87,0.00,,CLR,0.00,VWS V14.01,2013-11-29 03:50:00,
2013-11-28 19:55:00,37.9,34.4,30.15,SE,135,0.0,0.0,87,0.00,,CLR,0.00,VWS V14.01,2013-11-29 03:55:00,
2013-11-28 20:00:00,37.9,34.4,30.15,SE,135,0.0,0.0,87,0.00,,CLR,0.00,VWS V14.01,2013-11-29 04:00:00,
2013-11-28 20:05:00,37.7,34.2,30.16,SE,135,0.0,0.0,87,0.00,,CLR,0.00,VWS V14.01,2013-11-29 04:05:00,
2013-11-28 20:10:00,37.5,34.0,30.16,SE,135,0.0,0.0,87,0.00,,CLR,0.00,VWS V14.01,2013-11-29 04:10:00,
2013-11-28 20:15:00,37.2,33.7,30.15,SE,135,0.0,0.0,87,0.00,,CLR,0.00,VWS V14.01,2013-11-29 04:15:00,
2013-11-28 20:20:00,37.2,34.0,30.15,SE,135,0.0,0.0,88,0.00,,CLR,0.00,VWS V14.01,2013-11-29 04:20:00,
2013-11-28 20:25:00,37.0,33.8,30.15,SE,135,0.0,0.0,88,0.00,,CLR,0.00,VWS V14.01,2013-11-29 04:25:00,
2013-11-28 20:30:00,36.8,33.6,30.14,SE,135,0.0,0.0,88,0.00,,CLR,0.00,VWS V14.01,2013-11-29 04:30:00,
2013-11-28 20:35:00,36.8,33.6,30.14,SE,135,0.0,0.0,88,0.00,,CLR,0.00,VWS V14.01,2013-11-29 04:35:00,
2013-11-28 20:40:00,36.8,33.6,30.14,SE,135,0.0,0.0,88,0.00,,CLR,0.00,VWS V14.01,2013-11-29 04:40:00,
2013-11-28 20:45:00,37.0,33.8,30.15,SE,135,0.0,0.0,88,0.00,,CLR,0.00,VWS V14.01,2013-11-29 04:45:00,
2013-11-28 20:50:00,37.0,34.1,30.15,SE,135,0.0,0.0,89,0.00,,CLR,0.00,VWS V14.01,2013-11-29 04:50:00,
2013-11-28 20:55:00,36.8,33.9,30.15,SE,135,0.0,0.0,89,0.00,,CLR,0.00,VWS V14.01,2013-11-29 04:55:00,
2013-11-28 21:00:00,36.6,33.4,30.15,SE,135,0.0,0.0,88,0.00,,CLR,0.00,VWS V14.01,2013-11-29 05:00:00,
2013-11-28 21:01:00,36.6,33.4,30.15,SE,135,0.0,0.0,88,0.00,,CLR,0.00,VWS V14.01,2013-11-29 05:01:00,
2013-11-28 21:02:00,36.6,33.4,30.15,SE,135,0.0,0.0,88,0.00,,CLR,0.00,VWS V14.01,2013-11-29 05:02:00,
2013-11-28 21:03:00,36.6,33.4,30.15,SE,135,0.0,0.0,88,0.00,,CLR,0.00,VWS V14.01,2013-11-29 05:03:00,
2013-11-28 21:05:00,36.5,33.3,30.15,SE,135,0.0,0.0,88,0.00,,CLR,0.00,VWS V14.01,2013-11-29 05:05:00,
2013-11-28 21:10:00,36.3,33.1,30.15,SE,135,0.0,0.0,88,0.00,,CLR,0.00,VWS V14.01,2013-11-29 05:10:00,
2013-11-28 21:15:00,36.3,33.1,30.15,SE,135,0.0,0.0,88,0.00,,CLR,0.00,VWS V14.01,2013-11-29 05:15:00,
2013-11-28 21:20:00,36.1,32.9,30.15,SE,135,0.0,0.0,88,0.00,,CLR,0.00,VWS V14.01,2013-11-29 05:20:00,
2013-11-28 21:25:00,35.9,32.7,30.15,SE,135,0.0,0.0,88,0.00,,CLR,0.00,VWS V14.01,2013-11-29 05:25:00,
2013-11-28 21:30:00,35.9,32.7,30.14,SE,135,0.0,0.0,88,0.00,,CLR,0.00,VWS V14.01,2013-11-29 05:30:00,
2013-11-28 21:35:00,35.7,32.5,30.15,SE,135,0.0,0.0,88,0.00,,CLR,0.00,VWS V14.01,2013-11-29 05:35:00,
2013-11-28 21:40:00,35.7,32.5,30.15,SE,135,0.0,0.0,88,0.00,,CLR,0.00,VWS V14.01,2013-11-29 05:40:00,
2013-11-28 21:45:00,35.7,32.5,30.16,SE,135,0.0,0.0,88,0.00,,CLR,0.00,VWS V14.01,2013-11-29 05:45:00,
2013-11-28 21:50:00,35.7,32.8,30.16,SE,135,0.0,0.0,89,0.00,,CLR,0.00,VWS V14.01,2013-11-29 05:50:00,
2013-11-28 21:55:00,35.6,32.7,30.17,SE,135,0.0,0.0,89,0.00,,CLR,0.00,VWS V14.01,2013-11-29 05:55:00,
2013-11-28 22:00:00,35.4,32.5,30.16,SE,135,0.0,0.0,89,0.00,,CLR,0.00,VWS V14.01,2013-11-29 06:00:00,
2013-11-28 22:05:00,35.4,32.5,30.16,SE,135,0.0,0.0,89,0.00,,CLR,0.00,VWS V14.01,2013-11-29 06:05:00,
2013-11-28 22:10:00,35.4,32.5,30.16,SE,135,0.0,0.0,89,0.00,,CLR,0.00,VWS V14.01,2013-11-29 06:10:00,
2013-11-28 22:15:00,35.4,32.5,30.16,SE,135,0.0,0.0,89,0.00,,CLR,0.00,VWS V14.01,2013-11-29 06:15:00,
2013-11-28 22:20:00,35.4,32.5,30.16,SE,135,0.0,0.0,89,0.00,,CLR,0.00,VWS V14.01,2013-11-29 06:20:00,
2013-11-28 22:25:00,35.4,32.5,30.17,SE,135,0.0,0.0,89,0.00,,CLR,0.00,VWS V14.01,2013-11-29 06:25:00,
2013-11-28 22:30:00,35.4,32.5,30.17,SE,135,0.0,0.0,89,0.00,,CLR,0.00,VWS V14.01,2013-11-29 06:30:00,
2013-11-28 22:35:00,35.2,32.3,30.18,SE,135,0.0,0.0,89,0.00,,CLR,0.00,VWS V14.01,2013-11-29 06:35:00,
2013-11-28 22:40:00,35.2,32.3,30.18,SE,135,0.0,0.0,89,0.00,,CLR,0.00,VWS V14.01,2013-11-29 06:40:00,
2013-11-28 22:45:00,35.2,32.3,30.18,SE,135,0.0,0.0,89,0.00,,CLR,0.00,VWS V14.01,2013-11-29 06:45:00,
2013-11-28 22:50:00,35.0,32.1,30.18,SE,135,0.0,0.0,89,0.00,,CLR,0.00,VWS V14.01,2013-11-29 06:50:00,
2013-11-28 22:55:00,34.8,31.9,30.18,SE,135,0.0,0.0,89,0.00,,CLR,0.00,VWS V14.01,2013-11-29 06:55:00,
2013-11-28 23:00:00,34.8,31.9,30.18,SE,135,0.0,0.0,89,0.00,,CLR,0.00,VWS V14.01,2013-11-29 07:00:00,
2013-11-28 23:05:00,34.8,31.9,30.18,SE,135,0.0,0.0,89,0.00,,CLR,0.00,VWS V14.01,2013-11-29 07:05:00,
2013-11-28 23:10:00,34.8,31.9,30.19,SE,135,0.0,0.0,89,0.00,,CLR,0.00,VWS V14.01,2013-11-29 07:10:00,
2013-11-28 23:15:00,34.8,31.9,30.19,SE,135,0.0,0.0,89,0.00,,CLR,0.00,VWS V14.01,2013-11-29 07:15:00,
2013-11-28 23:20:00,34.8,31.9,30.19,SE,135,0.0,0.0,89,0.00,,CLR,0.00,VWS V14.01,2013-11-29 07:20:00,
2013-11-28 23:25:00,34.8,31.9,30.18,SE,135,0.0,0.0,89,0.00,,CLR,0.00,VWS V14.01,2013-11-29 07:25:00,
2013-11-28 23:30:00,35.2,32.3,30.18,SE,135,0.0,0.0,89,0.00,,CLR,0.00,VWS V14.01,2013-11-29 07:30:00,
2013-11-28 23:35:00,35.2,32.6,30.19,SE,135,0.0,0.0,90,0.00,,CLR,0.00,VWS V14.01,2013-11-29 07:35:00,
2013-11-28 23:40:00,35.2,32.6,30.18,SE,135,0.0,0.0,90,0.00,,CLR,0.00,VWS V14.01,2013-11-29 07:40:00,
2013-11-28 23:45:00,35.2,32.6,30.19,SE,135,0.0,0.0,90,0.00,,CLR,0.00,VWS V14.01,2013-11-29 07:45:00,
2013-11-28 23:50:00,35.2,32.6,30.19,SE,135,0.0,0.0,90,0.00,,CLR,0.00,VWS V14.01,2013-11-29 07:50:00,
2013-11-28 23:55:00,35.2,32.6,30.18,SE,135,0.0,0.0,90,0.00,,CLR,0.00,VWS V14.01,2013-11-29 07:55:00,